Flag for Germany Weather past 2 weeks in Bremerhaven, Bremen, Germany

Now
48 °F

Drizzle. Fog.


Feels Like: 42 °F
Forecast: 40 / 46 °F
Wind: 16 mph from Southwest

Location: Nordholz

Current Time: Mar 29, 2015 at 3:21:31 AM

Latest Report: Mar 29, 2015 at 1:20 AM


Visibility: 3 mi

Pressure: 29.53 "Hg

Humidity: 100%

Dew point: 48 °F

Location of BremerhavenLocation

Historic Weather in Bremerhaven — Graph

°F

Bremerhaven temperature yesterday

Maximum temperature yesterday: 50 °F (at 1:20 PM)
Minimum temperature yesterday: 39 °F (at 6:20 AM)
Average temperature yesterday: 44 °F

Past Weeks' High & Low Weather Summary

 TemperatureHumidityPressure
High57 °F (Mar 17, 3:20 PM)100% (Mar 18, 7:02 AM)30.48 "Hg (Mar 18, 7:02 AM)
Low28 °F (Mar 22, 5:20 AM)28% (Mar 19, 12:20 PM)29.56 "Hg (Mar 29, 12:20 AM)
Average42 °F79%30.11 "Hg
* Reported Mar 14 12:20 AM — Mar 29 12:20 AM, Bremerhaven, Weather by CustomWeather, © 2015

Note: Actual official high and low records may vary slightly from our data, if they occured in-between our weather recording intervals... More about our weather records

Advertising

Bremerhaven weather history for previous 24 hours

 ConditionsComfort  
Time TempWeatherWind HumidityBarometerVisibility
12:20 AM
Sun, Mar 29
48 °FDrizzle. Fog.16 mph100%29.56 "Hg3 mi
11:47 PM
Sat, Mar 28
48 °FDrizzle. Fog.16 mph100%29.59 "Hg2 mi
11:20 PM48 °FDrizzle. Fog.14 mph100%29.59 "Hg2 mi
10:20 PM48 °FDrizzle. Fog.15 mph94%29.62 "Hg2 mi
9:20 PM46 °FDrizzle. Fog.13 mph100%29.65 "Hg2 mi
8:20 PM46 °FDrizzle. Fog.15 mph93%29.71 "Hg2 mi
7:20 PM45 °FDrizzle. Fog.16 mph93%29.74 "Hg3 mi
6:20 PM45 °FDrizzle. Fog.13 mph93%29.77 "Hg2 mi
5:20 PM45 °FDrizzle. Fog.12 mph87%29.80 "Hg3 mi
4:20 PM46 °FLight rain. Partly sunny.13 mph76%29.83 "Hg5 mi
3:20 PM48 °FPartly sunny.12 mph62%29.86 "HgN/A
2:20 PM50 °FBroken clouds.14 mph54%29.92 "HgN/A
1:20 PM50 °FScattered clouds.14 mph54%29.95 "HgN/A
12:20 PM48 °FScattered clouds.14 mph62%29.98 "HgN/A
11:20 AM46 °FScattered clouds.13 mph66%30.04 "HgN/A
10:20 AM46 °FScattered clouds.12 mph71%30.07 "HgN/A
9:20 AM43 °FPassing clouds.8 mph87%30.07 "HgN/A
8:47 AM41 °FScattered clouds.8 mph93%30.09 "HgN/A
8:20 AM41 °FBroken clouds.7 mph93%30.09 "HgN/A
7:20 AM39 °FPartly sunny.6 mph93%30.12 "HgN/A
6:20 AM39 °FScattered showers. Broken clouds.2 mph87%30.12 "HgN/A
5:46 AM41 °FSprinkles. Partly cloudy.8 mph70%30.12 "Hg2 mi
5:20 AM41 °FPassing clouds.7 mph93%30.12 "HgN/A
4:20 AM43 °FPassing clouds.9 mph93%30.12 "Hg6 mi
3:20 AM43 °FPassing clouds.9 mph93%30.12 "Hg6 mi
Weather by CustomWeather, © 2015

See weather overviewHow to use our weather pages